When you browse on this site, cookies collect data to enhance your experience and personalize the content and advertising you see.
Visit our Privacy Policy to learn more. By continuing to use the site, you agree to this use of cookies and data.
  • In Hungary
  • List of Countries
  • For 7 days
  • Water Temperature
  • Satellite Maps
  • Weather Map
  • News
  • Weather Widgets
  • user-avatar
    Login

    Hourly Weather Karkal

    Today, 22 April, Monday

    Time Temperature Precipitation Wind Pressure Humidity
    00:00 +28°C° 0 mm 1 mps 749 mmHg 75%
    01:00 +28°C° 0 mm 1 mps 749 mmHg 77%
    02:00 +27°C° 0 mm 1 mps 748 mmHg 80%
    03:00 +27°C° 0 mm 1 mps 748 mmHg 81%
    04:00 +27°C° 0 mm 1 mps 748 mmHg 82%
    05:00 +26°C° 0 mm 1 mps 749 mmHg 82%
    06:00 +28°C° 0 mm 1 mps 749 mmHg 74%
    07:00 +30°C° 0 mm 1 mps 749 mmHg 66%
    08:00 +32°C° 0 mm 1 mps 750 mmHg 58%
    09:00 +34°C° 0 mm 1 mps 750 mmHg 50%
    10:00 +38°C° 0 mm 2 mps 750 mmHg 43%
    11:00 +40°C° 0 mm 2 mps 750 mmHg 35%
    12:00 +40°C° 0 mm 3 mps 749 mmHg 36%
    13:00 +41°C° 0 mm 4 mps 748 mmHg 36%
    14:00 +41°C° 0 mm 4 mps 748 mmHg 37%
    15:00 +38°C° 0 mm 4 mps 747 mmHg 44%
    16:00 +37°C° 0 mm 4 mps 747 mmHg 50%
    17:00 +35°C° 0 mm 4 mps 747 mmHg 57%
    18:00 +34°C° 0 mm 3 mps 748 mmHg 64%
    19:00 +31°C° 0 mm 2 mps 748 mmHg 71%
    20:00 +29°C° 0 mm 1 mps 748 mmHg 79%
    21:00 +29°C° 0 mm 1 mps 749 mmHg 80%
    22:00 +29°C° 0 mm 1 mps 749 mmHg 81%
    23:00 +28°C° 0 mm 1 mps 749 mmHg 82%

    Tomorrow, 23 April, Tuesday

    Time Temperature Precipitation Wind Pressure Humidity
    00:00 +28°C° 0 mm 1 mps 749 mmHg 82%
    01:00 +28°C° 0 mm 1 mps 749 mmHg 83%
    02:00 +28°C° 0 mm 1 mps 748 mmHg 83%
    03:00 +28°C° 0 mm 1 mps 748 mmHg 81%
    04:00 +27°C° 0 mm 1 mps 749 mmHg 80%
    05:00 +27°C° 0 mm 1 mps 749 mmHg 78%
    06:00 +27°C° 0 mm 0 mps 749 mmHg 70%
    07:00 +30°C° 0 mm 0 mps 750 mmHg 61%
    08:00 +32°C° 0 mm 0 mps 750 mmHg 52%
    09:00 +36°C° 0 mm 1 mps 750 mmHg 46%
    10:00 +39°C° 0 mm 1 mps 750 mmHg 40%
    11:00 +41°C° 0 mm 2 mps 750 mmHg 33%
    12:00 +40°C° 0 mm 3 mps 750 mmHg 37%
    13:00 +39°C° 0 mm 3 mps 749 mmHg 41%
    14:00 +38°C° 0 mm 4 mps 748 mmHg 45%
    15:00 +37°C° 0.1 mm 4 mps 748 mmHg 49%
    16:00 +36°C° 0.1 mm 3 mps 748 mmHg 53%
    17:00 +36°C° 0.1 mm 3 mps 748 mmHg 57%
    18:00 +34°C° 0.1 mm 3 mps 748 mmHg 63%
    19:00 +32°C° 0.1 mm 2 mps 749 mmHg 69%
    20:00 +30°C° 0.1 mm 2 mps 750 mmHg 75%
    21:00 +30°C° 0 mm 1 mps 750 mmHg 74%
    22:00 +30°C° 0 mm 1 mps 750 mmHg 73%
    23:00 +30°C° 0 mm 1 mps 750 mmHg 72%

    Day after tomorrow, 24 April, Wednesday

    Time Temperature Precipitation Wind Pressure Humidity
    00:00 +30°C° 0 mm 1 mps 750 mmHg 73%
    01:00 +29°C° 0 mm 1 mps 749 mmHg 73%
    02:00 +29°C° 0 mm 1 mps 749 mmHg 74%
    03:00 +28°C° 0 mm 1 mps 749 mmHg 74%
    04:00 +28°C° 0 mm 1 mps 749 mmHg 73%
    05:00 +28°C° 0 mm 1 mps 749 mmHg 73%
    06:00 +30°C° 0 mm 1 mps 750 mmHg 64%
    07:00 +33°C° 0 mm 1 mps 750 mmHg 56%
    08:00 +33°C° 0 mm 0 mps 751 mmHg 48%
    09:00 +37°C° 0 mm 1 mps 751 mmHg 43%
    10:00 +40°C° 0 mm 2 mps 750 mmHg 37%
    11:00 +42°C° 0 mm 2 mps 750 mmHg 32%
    12:00 +42°C° 0 mm 3 mps 749 mmHg 36%
    13:00 +39°C° 0 mm 3 mps 749 mmHg 41%
    14:00 +38°C° 0 mm 4 mps 748 mmHg 45%
    15:00 +37°C° 0.3 mm 3 mps 748 mmHg 52%
    16:00 +36°C° 0.3 mm 3 mps 747 mmHg 58%
    17:00 +35°C° 0.3 mm 2 mps 747 mmHg 65%
    18:00 +34°C° 0.1 mm 2 mps 748 mmHg 70%
    19:00 +32°C° 0.1 mm 2 mps 749 mmHg 75%
    20:00 +30°C° 0.1 mm 1 mps 750 mmHg 80%
    21:00 +30°C° 0.1 mm 1 mps 750 mmHg 82%
    22:00 +30°C° 0.1 mm 1 mps 750 mmHg 84%
    23:00 +29°C° 0.1 mm 1 mps 750 mmHg 86%

    25 April, Thursday

    Time Temperature Precipitation Wind Pressure Humidity
    00:00 +29°C° 0 mm 1 mps 750 mmHg 86%
    01:00 +28°C° 0 mm 1 mps 750 mmHg 85%
    02:00 +28°C° 0 mm 1 mps 749 mmHg 84%
    03:00 +28°C° 0 mm 1 mps 749 mmHg 83%
    04:00 +28°C° 0 mm 1 mps 749 mmHg 82%
    05:00 +28°C° 0 mm 1 mps 749 mmHg 81%
    06:00 +30°C° 0 mm 1 mps 750 mmHg 72%
    07:00 +30°C° 0 mm 0 mps 751 mmHg 63%
    08:00 +33°C° 0 mm 0 mps 751 mmHg 53%
    09:00 +36°C° 0 mm 1 mps 751 mmHg 47%
    10:00 +39°C° 0 mm 1 mps 751 mmHg 41%
    11:00 +41°C° 0 mm 2 mps 751 mmHg 35%
    12:00 +42°C° 0 mm 3 mps 750 mmHg 37%
    13:00 +42°C° 0 mm 4 mps 749 mmHg 38%
    14:00 +41°C° 0 mm 5 mps 748 mmHg 40%
    15:00 +40°C° 0 mm 4 mps 748 mmHg 48%
    16:00 +37°C° 0 mm 4 mps 748 mmHg 56%
    17:00 +35°C° 0 mm 3 mps 747 mmHg 65%
    18:00 +34°C° 0 mm 2 mps 748 mmHg 71%
    19:00 +31°C° 0 mm 1 mps 749 mmHg 77%
    20:00 +30°C° 0 mm 1 mps 750 mmHg 83%
    21:00 +28°C° 0 mm 0 mps 750 mmHg 85%
    22:00 +27°C° 0 mm 0 mps 750 mmHg 87%
    23:00 +27°C° 0 mm 0 mps 750 mmHg 89%

    26 April, Friday

    Time Temperature Precipitation Wind Pressure Humidity
    00:00 +27°C° 0 mm 0 mps 750 mmHg 89%
    01:00 +26°C° 0 mm 0 mps 749 mmHg 90%
    02:00 +26°C° 0 mm 0 mps 749 mmHg 91%
    03:00 +28°C° 0 mm 1 mps 749 mmHg 91%
    04:00 +28°C° 0 mm 1 mps 749 mmHg 91%
    05:00 +27°C° 0 mm 1 mps 749 mmHg 91%
    06:00 +30°C° 0 mm 1 mps 750 mmHg 81%
    07:00 +30°C° 0 mm 0 mps 750 mmHg 71%
    08:00 +32°C° 0 mm 0 mps 751 mmHg 61%
    09:00 +36°C° 0 mm 1 mps 751 mmHg 54%
    10:00 +38°C° 0 mm 2 mps 750 mmHg 48%
    11:00 +40°C° 0 mm 2 mps 750 mmHg 41%
    12:00 +40°C° 0 mm 3 mps 749 mmHg 41%
    13:00 +41°C° 0 mm 4 mps 748 mmHg 41%
    14:00 +41°C° 0 mm 4 mps 748 mmHg 42%
    15:00 +38°C° 0 mm 4 mps 747 mmHg 48%
    16:00 +37°C° 0 mm 3 mps 747 mmHg 54%
    17:00 +35°C° 0 mm 3 mps 747 mmHg 60%
    18:00 +34°C° 0 mm 2 mps 748 mmHg 67%
    19:00 +31°C° 0 mm 1 mps 749 mmHg 73%
    20:00 +30°C° 0 mm 1 mps 749 mmHg 80%
    21:00 +30°C° 0 mm 1 mps 750 mmHg 81%
    22:00 +28°C° 0 mm 0 mps 750 mmHg 83%
    23:00 +27°C° 0 mm 0 mps 750 mmHg 85%

    27 April, Saturday

    Time Temperature Precipitation Wind Pressure Humidity
    00:00 +27°C° 0 mm 0 mps 750 mmHg 85%
    01:00 +27°C° 0 mm 0 mps 749 mmHg 86%
    02:00 +27°C° 0 mm 0 mps 749 mmHg 87%
    03:00 +26°C° 0 mm 0 mps 749 mmHg 88%
    04:00 +28°C° 0 mm 1 mps 749 mmHg 89%
    05:00 +28°C° 0 mm 1 mps 749 mmHg 90%
    06:00 +30°C° 0 mm 1 mps 750 mmHg 81%
    07:00 +32°C° 0 mm 1 mps 750 mmHg 73%
    08:00 +33°C° 0 mm 1 mps 751 mmHg 64%
    09:00 +35°C° 0 mm 1 mps 751 mmHg 58%
    10:00 +38°C° 0 mm 2 mps 750 mmHg 52%
    11:00 +39°C° 0 mm 3 mps 750 mmHg 45%
    12:00 +39°C° 0.2 mm 3 mps 749 mmHg 47%
    13:00 +39°C° 0.2 mm 3 mps 748 mmHg 48%
    14:00 +39°C° 0.2 mm 3 mps 747 mmHg 49%
    15:00 +37°C° 0.1 mm 3 mps 747 mmHg 54%
    16:00 +36°C° 0.1 mm 3 mps 747 mmHg 59%
    17:00 +35°C° 0.1 mm 3 mps 747 mmHg 63%
    18:00 +34°C° 0.3 mm 2 mps 748 mmHg 69%
    19:00 +32°C° 0.3 mm 2 mps 749 mmHg 74%
    20:00 +31°C° 0.3 mm 1 mps 750 mmHg 79%
    21:00 +30°C° 0.3 mm 1 mps 750 mmHg 81%
    22:00 +30°C° 0.3 mm 1 mps 750 mmHg 82%
    23:00 +28°C° 0.3 mm 0 mps 750 mmHg 84%
    Show more